Date,TemperatureHighF,TemperatureAvgF,TemperatureLowF,DewpointHighF,DewpointAvgF,DewpointLowF,HumidityHigh,HumidityAvg,HumidityLow,PressureMaxIn,PressureMinIn,WindSpeedMaxMPH,WindSpeedAvgMPH,GustSpeedMaxMPH,PrecipitationSumIn
2013-12-1,75,56,46,56,45,40,83,66,47,30.03,29.91,6,1,6,0.00
2013-12-2,57,51,47,50,44,39,82,75,67,29.94,29.71,9,1,9,0.00
2013-12-3,58,52,45,52,40,30,84,63,48,29.71,29.56,20,5,22,0.00
2013-12-4,63,46,37,34,27,21,57,48,34,29.79,29.65,6,2,8,0.00
2013-12-5,62,43,33,34,23,18,56,46,31,29.94,29.76,6,1,6,0.00
2013-12-6,59,46,37,45,34,24,81,63,46,29.91,29.65,23,2,23,0.42
2013-12-7,58,45,36,45,32,23,83,62,40,29.94,29.65,24,5,25,0.08
2013-12-8,57,41,33,35,25,18,73,56,38,30.03,29.91,10,1,10,0.00
2013-12-9,61,42,34,32,21,16,54,44,32,30.12,30.00,8,2,9,0.00
2013-12-10,62,44,33,35,26,20,61,50,35,30.12,29.88,8,2,8,6.78
2013-12-11,65,46,36,37,29,20,67,53,34,29.97,29.85,8,1,8,0.00
2013-12-12,67,47,36,41,31,26,68,56,35,30.00,29.85,4,1,226,0.00
2013-12-13,67,48,39,48,36,0,79,63,18,30.03,29.91,5,1,5,0.00
2013-12-14,69,49,40,48,35,31,78,60,37,30.09,30.00,4,1,4,0.00
2013-12-15,70,50,40,44,35,13,72,57,36,30.06,29.91,9,1,9,0.00
2013-12-16,76,55,44,45,35,30,60,49,31,30.00,29.82,6,1,6,0.00
2013-12-17,70,54,44,45,37,32,68,55,38,29.88,29.74,4,1,4,0.00
2013-12-18,65,52,45,50,41,35,76,65,56,29.79,29.53,8,1,8,0.00
2013-12-19,67,53,45,46,37,25,76,57,38,29.68,29.44,20,5,224,0.00
2013-12-20,70,50,40,33,24,20,48,37,23,29.74,29.65,7,1,7,0.00
2013-12-21,71,53,44,51,39,23,75,61,41,29.82,29.68,9,1,10,0.00
2013-12-22,75,54,44,51,40,34,84,62,34,29.97,29.76,6,1,6,0.00
2013-12-23,71,53,44,50,39,34,75,60,40,30.09,29.97,6,1,6,0.00
2013-12-24,138,55,45,51,39,30,73,57,3,30.09,29.91,5,1,5,0.08
2013-12-25,74,54,44,47,38,34,70,56,34,30.03,29.88,4,1,5,0.00
2013-12-26,74,54,43,48,38,33,73,56,34,29.97,29.85,4,1,4,0.00
2013-12-27,65,51,43,48,39,34,75,65,48,29.91,29.82,4,1,6,0.00
2013-12-28,73,52,41,48,36,0,82,58,33,29.88,29.71,5,1,5,0.00
2013-12-29,76,56,46,36,28,25,49,36,22,29.88,29.76,5,2,6,3.94
2013-12-30,71,52,42,41,32,25,60,48,32,29.94,29.85,6,1,6,0.00
2013-12-31,68,50,42,51,38,0,79,64,46,29.97,29.85,6,1,6,0.00